Dewpoint
21 19 18 18 20 21 21 18 13 11 9 9 8 8 7 6 6 7 7 5 7 8 9 8 11 9 10 10 13 47 45 52 55 56 58 58 59 59 59 59 60 60 60 61 61 62 62 63 63 63 63 63 63 63 64 64 64 65 65 65 64 65 65 64 64 64 63 63 63 62 62 61 61 63 64 65 65 65 66 66 67 67 67 66 66 66
19 19 19 19 21 22 21 19 14 8 8 7 7 8 6 6 5 6 6 6 6 12 9 11 10 9 10 12 34 50 49 53 54 56 57 57 58 58 58 58 59 60 59 60 61 61 62 63 63 63 62 63 63 63 64 64 64 65 65 64 64 64 65 65 64 64 63 62 62 62 61 62 63 63 64 65 65 65 65 65 65 66 66 65 65 66
18 18 19 19 22 23 20 17 15 11 9 7 7 7 7 5 6 6 5 6 6 6 6 7 7 8 9 13 43 49 46 53 55 56 57 57 56 57 58 58 58 58 58 59 60 61 62 63 62 62 62 63 63 63 64 65 64 64 64 64 64 64 64 64 64 63 62 62 62 62 62 64 64 65 65 65 65 66 64 65 66 66 65 65 65 65
18 17 18 19 21 21 19 15 14 12 12 11 8 8 8 8 4 5 6 5 4 10 12 10 6 9 11 40 35 43 48 52 54 56 56 57 56 57 57 57 58 58 58 58 59 60 62 63 62 62 62 62 63 63 64 65 64 64 64 64 64 64 64 64 64 64 63 64 64 64 64 65 65 65 66 64 64 64 65 65 66 66 66 65 64 65
16 16 18 18 19 19 19 15 13 14 12 12 8 7 7 7 7 4 6 5 4 5 14 7 12 9 8 35 43 49 52 52 53 54 54 55 56 57 58 57 58 58 58 58 58 60 61 61 62 62 62 63 63 63 64 64 64 64 63 64 64 64 64 64 65 65 65 65 65 65 65 65 65 64 63 62 62 62 64 64 64 65 66 66 65 65
16 15 17 16 17 18 17 15 12 13 12 11 10 7 7 8 7 7 7 6 9 9 6 5 5 8 18 31 35 50 51 51 53 53 54 55 55 56 56 57 57 58 58 58 58 60 61 61 62 62 63 62 62 63 64 64 64 64 64 64 64 64 64 64 64 65 65 64 64 63 63 62 61 61 61 61 62 62 63 63 64 65 65 66 65 65
16 16 15 14 15 16 16 15 12 11 11 11 8 7 7 7 6 6 7 7 6 6 7 6 4 11 19 36 46 50 50 51 52 53 54 54 55 56 56 56 57 57 58 58 59 60 61 61 62 62 62 62 63 64 64 65 64 64 64 64 64 64 64 64 64 65 64 63 63 63 63 62 62 62 61 61 62 63 63 64 64 64 64 65 64 64
15 15 13 13 13 14 14 14 12 8 8 7 8 8 7 7 6 6 6 6 9 15 13 9 4 5 11 26 48 50 50 50 51 52 53 54 54 55 56 56 57 57 58 58 58 60 61 62 61 62 63 63 63 64 64 64 64 64 64 64 64 64 64 64 64 64 64 63 63 62 62 62 62 62 62 63 63 63 63 64 64 64 64 65 64 62
17 14 14 12 12 12 12 13 11 8 5 6 6 8 8 7 7 6 6 8 12 11 8 12 12 6 8 27 50 50 49 49 50 51 52 54 55 55 55 56 56 57 58 58 59 61 61 61 62 63 63 63 63 64 63 64 64 64 64 64 64 64 65 65 65 64 64 64 63 63 63 62 62 62 62 63 64 63 63 63 63 63 63 61 60 59
14 14 14 13 12 11 11 11 9 7 6 6 7 8 8 8 8 6 6 4 9 9 9 8 8 4 6 41 48 49 47 48 49 51 52 53 54 55 55 56 57 57 57 58 60 61 61 62 62 62 62 62 62 63 63 64 64 64 63 63 64 65 65 65 65 65 64 64 64 63 63 63 63 62 62 62 63 62 62 62 62 61 59 58 58 58
13 20 20 14 12 12 11 10 9 6 5 7 6 5 5 5 8 10 12 8 10 9 10 10 7 5 4 31 47 47 47 48 49 50 52 53 54 55 55 56 57 57 57 59 60 61 62 61 61 61 61 62 62 63 63 63 63 63 63 63 64 65 65 65 65 65 64 64 64 63 63 63 62 61 61 61 61 62 62 62 61 60 59 58 57 57
11 12 14 14 16 13 11 9 8 7 4 5 4 4 4 8 10 10 12 15 6 8 16 16 9 5 3 13 43 48 48 49 49 50 51 53 54 55 55 57 57 58 58 59 60 61 61 60 60 61 61 62 62 63 63 63 63 63 63 64 64 65 65 65 65 64 63 63 64 63 63 62 62 61 61 61 62 62 62 60 59 58 56 56 56 56
9 9 11 12 22 12 10 8 6 6 5 3 5 5 4 9 7 6 6 8 7 6 14 13 8 5 3 12 36 47 48 49 50 50 51 52 54 55 56 57 58 58 58 59 60 61 60 60 60 60 61 61 62 62 63 63 63 63 64 64 64 64 65 64 64 63 63 63 63 63 62 62 62 62 62 62 61 60 60 59 57 56 55 55 54 55
10 9 9 10 13 16 9 7 5 4 4 3 3 8 5 5 5 4 8 13 12 15 15 11 8 4 17 14 26 45 47 49 50 50 51 52 53 55 56 57 58 58 58 59 61 61 60 60 60 60 61 61 62 62 63 63 63 63 64 64 64 64 64 64 63 63 63 63 63 63 62 62 61 60 60 59 57 57 57 56 55 55 54 54 54 54
10 7 7 9 9 11 9 7 5 4 4 2 4 7 10 9 11 2 8 4 7 9 8 9 6 12 4 12 26 42 47 49 50 50 51 53 55 56 57 58 58 58 57 59 61 61 60 61 61 61 61 61 62 62 62 63 63 64 64 64 64 64 64 63 63 63 63 62 61 60 60 59 59 58 57 57 57 56 55 55 54 54 54 54 54 54
7 11 14 9 14 9 8 8 6 5 3 3 4 8 11 7 21 6 15 16 12 8 9 9 15 14 9 24 39 37 46 48 51 53 54 55 56 57 57 58 58 58 58 59 60 60 61 61 61 61 61 61 62 62 62 63 63 64 64 64 64 64 63 63 63 63 61 60 59 58 58 58 58 58 56 56 56 55 55 54 54 53 53 53 54 54
8 12 11 9 10 8 7 8 6 6 6 7 4 5 5 15 13 15 10 23 17 15 10 20 15 20 31 28 37 41 45 49 52 53 53 55 56 57 57 58 58 58 58 59 60 60 61 61 61 61 61 61 62 62 62 63 64 64 64 64 63 63 63 62 62 60 59 58 58 58 57 57 56 56 55 55 54 54 54 54 54 53 53 53 53 54
12 15 18 8 8 8 8 8 7 7 15 9 4 5 8 12 23 19 13 13 11 13 15 14 10 18 20 18 39 45 45 49 52 52 53 55 56 56 57 58 59 59 58 59 60 60 61 61 60 60 61 61 62 62 62 63 64 64 63 63 62 61 60 59 59 58 58 57 57 57 56 56 56 55 55 54 54 54 53 53 53 53 53 53 54 54
16 9 11 9 8 8 8 8 7 8 9 6 6 8 4 11 6 20 17 4 6 6 8 14 16 17 22 22 41 44 46 49 51 53 54 55 55 56 57 58 59 59 59 59 59 60 61 61 60 60 61 61 62 62 62 63 64 63 63 62 60 59 58 58 58 57 57 57 57 56 56 56 56 54 54 54 54 53 53 53 53 53 53 53 53 53
23 16 14 9 8 8 8 7 10 7 10 11 6 4 13 20 20 8 13 16 13 10 5 10 10 9 23 26 43 44 47 50 52 52 53 55 56 56 57 58 59 58 58 59 59 60 60 60 60 60 61 61 61 62 63 63 63 62 61 60 58 58 57 57 57 57 56 56 56 56 56 55 55 54 53 53 53 52 52 52 52 52 52 52 52 51
17 29 15 10 9 8 8 9 10 9 9 8 9 8 7 15 18 12 22 10 9 12 13 13 6 15 25 34 39 44 47 51 52 52 53 55 56 56 57 58 59 58 58 59 59 60 60 60 60 60 61 61 62 62 63 63 61 60 59 58 57 57 56 56 56 56 56 56 55 54 53 53 53 53 53 53 53 52 52 52 52 51 51 51 50 51
16 21 20 17 9 7 11 13 12 10 7 9 13 14 10 7 6 5 15 17 20 19 12 10 13 22 31 44 43 43 48 51 52 53 53 55 56 56 57 59 59 58 58 59 59 59 59 59 59 60 61 61 62 62 62 61 60 58 58 57 56 56 55 55 55 55 54 54 53 53 52 52 52 52 52 52 52 52 51 51 51 51 50 50 50 50
16 29 24 15 12 8 11 10 13 12 10 6 6 8 6 16 16 17 7 14 11 14 19 19 13 16 33 44 47 41 47 51 52 53 54 55 56 57 58 59 59 58 58 58 59 59 59 59 60 60 61 61 61 61 61 59 58 57 57 56 56 55 55 54 53 53 53 52 52 52 51 51 51 51 51 51 51 51 51 51 50 51 50 50 50 49
35 22 19 15 14 15 14 14 12 11 9 9 13 8 6 11 13 16 22 23 16 18 11 12 8 22 34 46 50 44 46 50 53 53 54 55 56 57 58 58 58 58 58 58 59 58 59 59 60 61 61 61 61 60 59 58 57 57 56 55 55 54 53 53 52 52 52 51 51 51 51 51 51 50 50 50 51 51 51 51 51 51 51 49 48 48
20 27 19 14 12 12 14 15 11 11 10 15 13 15 6 14 13 24 22 22 12 19 19 14 9 20 37 48 51 40 45 49 52 53 55 55 56 57 57 58 58 58 58 58 58 58 59 60 60 60 60 60 60 59 58 57 56 55 55 55 54 53 53 52 52 51 51 51 51 51 50 50 50 50 50 50 50 50 50 50 50 51 50 48 48 47
24 27 25 18 13 10 10 11 13 12 11 16 18 8 5 3 16 12 8 9 11 21 18 15 18 30 39 48 50 40 45 49 52 54 55 56 56 56 57 58 58 58 58 58 57 58 58 59 60 60 60 59 59 57 57 56 55 55 54 54 53 52 52 52 51 51 51 51 51 50 50 50 50 50 50 50 49 49 49 50 50 50 49 48 47 47
27 29 31 26 17 16 20 17 16 21 14 8 13 14 16 9 10 19 22 14 13 23 15 25 34 37 43 48 49 46 47 49 50 52 53 54 55 57 57 58 58 57 58 57 57 58 59 59 59 59 59 58 57 57 56 55 54 54 54 53 53 52 52 51 51 51 51 50 50 50 50 50 50 50 49 50 50 50 50 49 50 49 48 48 47 46
28 23 26 28 25 21 20 15 19 14 11 13 11 13 15 15 18 17 15 15 22 10 16 29 37 40 43 50 51 49 48 49 50 52 53 54 55 56 57 57 56 57 57 57 57 58 58 58 58 58 58 57 57 56 55 54 54 53 53 52 52 52 52 51 51 50 50 50 50 50 50 50 50 50 50 50 50 49 49 49 49 48 47 47 46 45
29 21 26 27 25 25 19 14 13 11 11 12 9 15 17 20 19 15 20 26 24 14 17 32 38 40 46 51 51 50 49 49 51 52 52 54 56 57 57 57 56 57 57 57 57 58 58 58 58 58 57 57 56 55 54 53 53 53 53 52 52 52 51 51 50 50 50 50 50 50 50 50 50 50 50 49 49 49 48 48 47 47 47 46 46 47
24 22 30 28 25 25 25 21 20 13 17 15 19 18 20 22 22 23 26 31 22 22 28 38 38 42 47 49 51 52 53 54 54 54 55 56 56 57 57 56 56 57 57 57 57 57 58 58 57 57 57 56 55 54 53 53 52 52 52 52 52 52 51 51 51 51 50 49 49 50 50 49 49 49 49 49 49 48 47 47 46 46 45 45 45 45
21 22 31 26 18 27 31 25 20 20 17 16 17 21 23 24 25 26 25 30 34 35 36 37 38 39 42 49 52 54 55 55 55 55 55 56 57 57 56 56 56 57 57 57 57 57 57 57 57 56 55 54 53 53 52 52 52 52 52 51 51 51 51 50 50 50 49 49 49 50 50 50 50 49 49 49 48 47 47 46 46 45 45 44 44 43
31 19 33 28 19 20 27 25 27 28 22 18 17 19 19 18 18 22 16 26 28 33 33 34 34 38 44 50 53 54 54 54 54 55 56 56 57 57 56 56 56 56 56 57 57 57 57 56 56 55 54 53 52 52 52 52 52 51 51 50 50 50 51 50 50 49 49 50 50 50 50 50 50 49 49 48 47 46 46 46 46 45 45 44 43 43
27 24 21 22 24 18 27 31 29 25 18 15 13 22 27 24 25 28 27 31 29 33 31 30 33 41 49 52 53 53 53 54 55 55 56 56 57 56 56 56 56 56 56 56 56 56 56 56 55 54 53 52 52 52 51 51 51 51 51 50 50 50 49 49 49 49 49 49 48 48 48 48 48 48 48 47 47 46 45 45 45 45 44 43 43 41
28 28 23 27 22 17 28 30 29 18 11 19 27 34 35 26 25 20 21 25 29 31 30 31 33 43 50 52 53 52 52 53 55 55 57 56 56 56 56 55 55 56 55 56 56 55 55 55 54 53 52 51 51 51 51 51 52 52 51 50 49 49 48 48 48 49 48 48 47 47 48 48 48 48 47 47 46 45 45 44 44 43 42 41 40 40
28 28 22 25 20 15 23 26 19 9 15 27 36 40 41 37 27 22 26 32 31 40 41 43 47 50 52 53 53 53 54 54 55 55 55 57 57 56 55 55 55 55 55 55 55 55 55 54 53 52 51 51 51 51 51 51 51 51 50 49 48 48 48 48 47 47 47 47 47 47 48 48 47 47 46 46 45 45 45 45 44 42 40 38 37 37
24 26 25 25 25 26 21 20 10 13 25 34 37 39 40 36 34 27 23 26 31 40 43 45 49 51 50 49 50 52 54 54 54 53 54 55 56 56 55 55 55 55 55 55 54 54 54 53 52 51 51 51 51 51 51 51 51 50 49 48 48 48 48 48 47 47 47 47 47 47 47 47 46 46 45 45 45 45 44 43 42 41 41 40 39 39
31 30 30 22 25 15 19 19 20 27 22 26 27 32 32 27 28 25 19 20 29 32 44 46 48 48 49 48 50 52 53 54 53 52 52 53 53 55 55 55 55 55 55 54 55 54 53 52 51 51 50 50 51 51 52 52 51 49 48 48 48 48 48 48 47 46 47 46 46 46 46 46 45 45 44 44 44 43 42 42 41 41 40 39 38 37
30 23 25 28 20 27 23 19 18 17 12 21 29 36 41 41 36 34 25 22 33 39 41 47 47 49 49 49 50 52 53 51 48 50 52 52 53 54 54 55 55 55 54 54 53 54 52 51 51 50 50 50 51 51 52 51 49 48 47 47 48 48 48 46 46 46 46 45 46 46 45 45 44 44 43 43 42 42 42 41 40 40 40 38 38 38
29 28 27 27 20 24 21 20 17 12 17 26 32 39 41 41 40 35 24 17 27 39 40 47 48 49 49 49 50 52 50 47 47 51 53 53 53 54 54 54 54 54 54 53 53 52 51 51 50 50 50 51 50 51 51 50 48 47 47 47 46 46 45 45 45 45 45 45 45 45 44 44 43 42 42 42 42 41 40 40 39 40 39 38 38 37
27 25 27 26 21 20 19 17 14 17 23 33 36 40 41 41 35 24 14 20 32 39 43 44 48 48 48 50 51 50 47 42 46 50 53 53 53 53 54 54 54 53 53 53 52 51 50 50 50 49 49 50 51 51 50 50 48 47 46 46 45 45 44 45 45 45 44 44 44 44 43 43 43 42 42 42 41 40 39 40 39 38 37 37 37 37
21 20 27 21 20 20 19 16 19 21 30 36 39 41 42 40 30 21 17 26 35 41 44 46 48 48 48 49 49 46 45 42 46 52 52 52 51 52 53 53 53 53 53 52 52 49 49 49 49 50 50 50 51 50 49 49 47 46 45 45 44 44 44 44 44 44 44 43 43 43 43 43 42 42 42 42 41 40 40 38 37 36 35 35 36 36
22 24 22 21 19 16 18 16 17 21 29 39 40 43 41 30 23 21 29 35 42 44 45 46 47 47 47 48 47 46 46 50 52 52 52 51 52 52 52 52 52 52 52 51 49 50 50 49 50 50 50 50 50 48 48 47 46 44 44 44 43 43 44 43 43 43 43 43 43 43 42 42 42 42 42 42 41 40 38 37 36 35 35 35 35 35
25 23 20 19 21 18 18 17 16 16 29 39 40 36 38 30 30 35 39 44 45 45 45 45 47 47 47 46 48 49 50 51 51 51 51 51 51 51 51 51 51 51 50 50 50 50 50 49 49 49 49 49 47 47 47 45 44 43 43 42 42 43 43 43 42 42 42 42 42 42 42 42 42 42 43 42 41 39 39 39 38 37 37 37 37 36
34 21 21 22 25 23 17 15 17 27 35 42 37 32 39 39 39 41 44 43 45 45 45 46 47 47 47 48 49 49 50 50 50 50 50 50 51 51 51 51 50 50 49 50 50 50 49 49 49 49 49 47 46 46 45 44 42 42 41 41 41 42 42 42 42 42 42 41 41 41 41 42 42 42 41 41 40 40 39 39 39 39 39 39 38 38
35 29 29 27 32 23 26 27 35 37 42 45 43 41 42 45 46 47 46 45 45 45 47 46 47 48 50 50 50 50 50 50 50 50 50 50 50 50 50 50 49 49 49 48 48 47 48 48 48 47 46 45 44 44 43 44 42 40 40 40 41 41 41 41 41 41 41 41 41 41 41 41 41 41 41 40 40 39 39 39 39 39 39 39 38 38
39 41 39 36 35 38 39 39 42 42 42 44 45 46 45 45 46 47 46 45 46 46 46 48 49 49 50 51 50 50 50 50 50 49 50 50 50 50 50 49 49 48 48 48 48 49 48 48 46 44 44 43 43 42 42 42 41 40 40 41 41 41 41 41 40 40 40 40 40 40 40 40 40 40 40 39 39 39 39 39 39 38 38 38 37 37
40 40 38 33 36 32 32 35 41 43 43 44 45 46 45 45 45 46 46 46 47 47 48 49 49 50 51 51 51 50 50 50 49 49 50 50 50 49 49 49 48 48 48 48 48 48 48 47 44 43 43 42 42 42 41 41 41 40 41 41 41 41 40 40 40 40 40 40 40 40 40 39 38 38 38 38 38 38 38 37 37 37 36 36 35 34
31 39 35 36 36 29 29 37 41 42 43 44 44 45 45 46 46 45 45 47 47 48 49 50 51 50 50 50 50 50 50 50 49 49 50 49 49 49 49 48 48 48 48 47 47 47 46 44 43 43 43 43 42 42 41 41 40 40 41 41 41 40 40 40 40 40 40 40 40 38 37 37 35 36 35 34 34 34 34 34 35 35 35 34 33 32
39 41 32 37 35 36 39 42 43 39 41 43 44 45 45 45 45 45 46 46 48 49 48 49 50 51 51 50 50 50 50 49 50 50 49 49 49 49 49 48 48 48 47 47 46 45 44 43 43 43 43 43 42 41 41 40 40 40 40 41 41 40 40 40 39 40 39 38 36 36 36 36 35 34 33 32 31 31 31 31 33 33 32 31 31 32
39 34 38 33 32 31 34 37 42 33 34 41 43 45 45 47 45 44 45 45 47 48 47 49 48 49 50 50 51 51 50 49 50 50 49 49 49 49 48 48 48 47 46 46 45 44 43 43 42 43 43 43 42 41 41 40 40 41 40 41 41 40 40 40 39 38 37 35 35 34 34 33 33 32 31 30 30 30 30 31 34 32 32 31 34 33
40 40 36 29 29 31 35 41 41 39 38 41 43 46 46 46 46 45 44 44 45 47 49 49 49 49 49 50 51 50 50 50 49 49 49 49 49 49 49 48 47 46 46 45 44 43 42 42 42 42 42 42 42 41 41 40 40 41 41 41 41 40 40 40 39 37 35 34 33 33 33 32 31 30 30 29 29 29 28 28 29 32 34 33 34 33